カタログに戻る

STARLINK-5214

運用中通信VLEO
NORAD 54762·PAYLOAD·🇺🇸 United States

打ち上げ Dec 17, 2022 から Cape Canaveral Space Force Station

Loading…

次のパス (今後24時間)

TLE

最新Source: CelesTrak SupGP

元期: Sep 14, 2026, 21:07 UTC

1 54762C 22175E   26257.88034722 -.00058653  00000+0 -18871-2 0  2579
2 54762  53.1556 260.9828 0001335  88.3813  98.1455 15.31714680    18

AllMySatでSTARLINK-5214をリアルタイム追跡

Download on the App Store